Wind_Speed
77 81 91 93 76 63 59 59 57 54 47 51 54 55 55 58 64 74 80 81 88 94 90 89 103 110 107 105 100 94 89 85 82 81 78 74 73 71 75 87 92 92 95 97 93 92 90
83 86 95 92 78 67 63 52 43 39 37 37 42 44 50 53 55 61 67 73 73 83 92 90 89 95 104 109 105 99 91 90 87 85 81 77 76 74 75 75 79 83 89 95 97 94 92
88 92 98 95 78 68 59 51 43 33 27 28 30 33 39 45 50 53 56 57 66 75 83 92 90 89 89 96 104 100 97 94 91 88 87 84 81 77 75 76 77 80 82 84 88 91 93
93 96 101 93 78 71 64 54 43 34 24 19 21 25 29 32 38 42 44 49 59 62 65 86 89 86 85 86 93 98 100 100 96 93 89 88 83 80 77 75 76 77 78 79 79 78 81
99 95 103 95 81 76 68 54 40 35 30 21 15 13 17 20 23 28 36 46 51 52 57 72 85 85 84 84 87 85 92 103 98 96 93 90 88 84 81 80 79 80 80 80 79 78 79
107 96 104 102 84 77 72 60 46 38 31 26 18 10 4 9 15 21 30 40 49 46 54 63 77 83 87 84 78 76 80 92 96 96 92 93 89 86 85 83 82 83 82 83 83 81 84
112 98 104 107 93 79 77 66 58 49 39 29 21 13 6 4 10 17 24 35 42 45 50 59 67 71 77 75 71 74 69 79 91 93 92 92 93 91 88 88 87 84 85 85 83 83 86
110 105 102 108 104 89 82 73 64 58 48 38 31 25 19 13 8 10 19 29 37 48 51 54 60 62 69 68 68 68 64 65 71 83 92 96 93 93 94 91 89 89 88 86 89 90 90
109 109 103 108 109 104 89 84 73 63 53 37 31 32 29 26 22 18 22 27 34 44 50 49 52 59 63 63 62 63 64 65 66 68 78 91 93 91 91 94 94 92 93 93 93 94 96
110 110 106 104 108 113 103 91 84 71 60 50 41 38 38 37 33 28 25 25 32 43 49 49 51 57 58 57 58 58 60 59 59 58 63 73 81 86 89 91 90 93 94 94 97 97 94
106 111 112 104 106 112 114 101 90 81 70 61 55 45 39 35 38 32 27 25 26 35 41 43 43 47 50 53 54 52 53 51 51 53 55 61 69 78 85 87 89 90 89 87 86 82 82
105 109 111 115 101 106 112 111 99 88 79 69 62 54 44 38 35 36 31 26 24 28 34 33 35 38 44 47 48 49 49 48 48 49 49 52 55 58 60 63 66 69 71 71 68 66 64
101 105 111 115 107 101 105 110 110 96 87 75 68 61 51 43 39 38 35 30 25 25 26 29 30 33 36 40 42 42 43 43 44 45 46 47 48 49 50 53 56 60 64 62 61 55 50
96 101 104 111 113 96 99 103 104 107 95 84 74 67 59 53 48 39 37 31 27 20 17 15 19 23 27 30 31 33 35 36 40 41 40 41 42 44 45 45 49 49 49 47 42 35 27
89 95 98 105 113 116 95 96 99 101 103 96 83 73 63 58 53 46 40 37 27 22 20 18 16 16 15 15 18 23 26 28 30 32 34 32 31 31 33 35 34 33 28 22 20 18 16
80 88 95 97 104 111 115 94 92 94 97 101 96 83 72 63 59 57 58 46 39 34 27 20 16 13 12 11 9 14 5 8 14 16 19 18 20 21 19 15 12 11 14 11 8 6 7
74 78 86 94 96 99 106 113 90 89 90 94 97 92 84 78 71 68 58 54 49 44 41 36 32 29 24 21 18 16 14 14 13 12 11 11 11 11 11 12 14 13 12 14 14 15 16
67 72 75 85 92 91 97 103 106 87 87 85 87 84 88 92 92 78 68 61 53 49 48 45 42 40 38 36 32 30 27 24 24 24 22 19 17 17 20 21 18 17 19 19 18 19 17
61 68 69 73 83 89 93 95 98 102 98 86 81 75 80 91 84 84 79 74 66 62 57 53 51 49 47 46 45 42 39 38 37 35 33 31 32 30 27 26 26 26 25 23 22 20 19
51 62 62 66 69 80 87 88 90 90 95 100 93 78 75 74 72 72 74 74 73 72 69 66 63 60 58 57 57 57 56 53 51 49 48 45 42 37 32 29 28 25 23 22 19 17 15
46 53 58 59 62 68 77 81 83 82 85 92 95 93 75 70 65 64 65 65 66 68 67 67 65 64 63 62 60 58 56 55 54 52 50 49 48 46 42 38 36 35 31 29 26 22 18
42 44 52 53 54 60 66 69 77 80 75 82 86 87 90 85 66 63 58 55 55 56 57 57 56 56 54 53 53 51 50 48 46 44 42 42 40 38 36 34 33 31 30 29 28 27 24
39 35 44 45 54 54 60 66 68 72 77 77 74 80 80 84 83 70 58 58 53 50 49 49 48 48 48 46 46 45 45 44 42 41 39 39 37 34 31 30 28 26 24 23 22 20 18
37 31 41 41 44 45 50 57 59 63 65 75 65 68 73 75 78 73 64 55 50 51 48 47 47 46 45 45 43 42 40 40 39 38 35 34 33 31 29 27 27 24 23 23 22 20 19
33 35 34 33 37 38 43 48 47 57 56 64 62 60 62 70 71 72 67 61 52 45 41 41 41 41 41 40 40 38 36 34 34 33 31 30 28 26 25 23 21 21 21 21 20 18 17
28 33 36 38 34 32 38 40 40 46 47 53 58 56 55 56 65 66 65 61 62 49 44 39 35 33 33 32 31 31 30 28 27 26 25 25 23 22 21 20 20 20 20 19 19 19 19
27 31 31 34 37 35 31 35 42 39 41 41 46 47 50 51 52 59 59 59 59 53 45 43 36 32 32 30 29 28 28 29 28 25 24 23 24 23 20 21 22 22 23 22 21 22 22
29 32 33 33 33 35 36 35 30 35 34 35 30 38 43 47 44 53 51 56 54 53 48 47 43 36 34 31 30 30 29 28 27 27 26 25 25 24 23 23 25 25 22 28 26 30 30
30 28 33 35 31 34 31 32 22 31 25 29 28 27 31 34 37 42 42 45 48 45 49 47 46 41 37 33 30 30 28 28 29 26 27 27 25 26 26 29 29 30 30 31 32 31 30
Wind_Direction
352 350 350 344 341 335 326 316 307 301 290 276 268 263 255 247 243 241 241 238 234 230 233 231 231 232 233 231 230 230 230 231 233 236 238 240 243 245 246 243 243 245 247 250 251 251 252
356 356 354 350 350 344 336 330 320 309 300 282 269 260 253 247 241 238 237 237 235 231 228 228 229 230 233 232 232 229 229 230 231 234 236 239 241 242 245 244 244 247 248 248 249 251 252
2 2 357 357 353 350 348 346 343 334 315 293 275 263 254 248 243 236 231 229 229 230 226 227 228 230 232 231 231 230 229 230 231 232 235 237 239 241 245 247 248 248 249 251 252 253 254
5 6 3 2 359 360 1 358 353 348 345 323 290 270 261 252 243 238 231 224 223 224 221 223 223 225 227 228 228 231 229 230 229 231 234 237 239 238 241 244 248 250 250 251 252 253 255
7 8 9 8 5 8 10 7 8 5 6 359 330 286 261 252 244 233 222 218 218 214 211 216 219 219 222 225 226 228 230 229 230 230 233 236 238 239 240 240 244 249 252 254 257 258 259
10 10 13 13 13 14 15 17 22 25 21 16 10 356 290 236 230 219 209 209 212 202 204 206 211 214 219 222 224 229 229 227 228 231 234 236 239 240 241 241 243 247 251 254 259 261 263
12 11 16 16 19 20 22 21 26 32 32 35 39 46 60 185 196 196 196 199 203 195 197 199 205 208 214 218 220 226 225 226 228 232 234 237 238 240 241 242 243 246 249 253 257 260 262
12 14 16 18 23 24 28 28 31 34 31 34 45 50 58 73 109 152 169 183 190 187 193 198 201 204 211 215 218 222 223 224 228 232 235 237 239 241 242 244 245 250 252 254 257 258 262
15 17 16 19 23 28 29 33 33 37 41 45 57 68 72 80 87 109 138 159 174 187 190 191 196 199 204 209 212 216 218 222 227 230 233 236 237 240 243 246 247 250 253 255 257 260 264
15 18 20 20 23 29 29 32 35 38 42 46 55 67 75 77 85 100 120 145 166 180 186 188 191 196 200 204 208 211 215 221 225 230 234 236 238 241 244 248 252 253 255 256 257 261 266
17 20 25 22 23 29 31 32 35 36 42 45 51 58 67 80 87 93 112 131 154 171 180 187 190 195 198 202 206 210 214 219 224 231 233 235 238 242 245 248 251 253 256 259 261 265 269
20 21 23 25 24 29 33 35 34 37 39 46 50 53 56 73 84 93 103 113 135 159 171 182 189 194 196 200 207 212 216 219 222 229 234 237 240 245 248 252 255 257 261 265 270 272 274
19 21 23 27 27 27 31 36 37 37 40 43 51 52 57 60 75 88 99 110 127 149 168 181 188 193 196 200 206 212 219 225 228 231 235 241 246 252 256 260 262 264 266 268 270 270 267
17 22 24 26 30 28 30 34 37 40 42 41 46 55 55 57 64 77 85 96 106 122 143 170 188 193 198 204 210 217 224 228 232 235 241 246 250 256 257 260 261 262 263 262 266 270 269
18 20 23 28 30 30 30 32 36 37 43 45 44 49 58 65 66 69 74 74 88 100 116 129 136 145 168 186 205 215 223 232 236 243 246 248 249 249 251 250 252 254 257 252 249 260 260
19 19 21 26 28 28 31 32 34 37 39 46 46 48 52 58 67 72 67 67 73 78 82 82 87 97 113 132 133 166 97 205 218 219 224 227 229 230 229 228 219 221 216 216 198 146 132
21 20 20 22 27 29 30 32 33 36 38 42 44 47 53 57 59 63 69 71 72 76 81 84 86 88 91 96 102 107 108 116 125 131 140 148 151 161 168 172 171 157 149 141 144 126 95
18 24 22 20 22 27 28 28 33 36 36 41 46 42 49 54 57 59 62 67 70 75 81 84 86 89 91 94 96 99 99 104 107 103 103 117 134 141 136 134 134 131 126 119 118 102 105
19 20 22 23 20 21 25 30 32 33 39 37 40 42 46 53 55 60 60 64 67 70 74 79 84 86 89 90 91 94 98 99 103 101 98 97 97 105 105 103 100 102 103 102 103 106 106
12 17 25 21 22 19 21 25 31 33 32 35 37 37 43 52 54 55 59 62 66 69 71 75 79 82 84 87 89 88 89 89 89 88 87 85 86 86 88 87 87 87 88 93 94 95 97
12 13 19 22 20 20 19 21 26 32 32 32 35 38 39 43 47 53 57 59 60 63 66 71 74 78 81 82 82 82 81 80 79 78 77 79 80 81 82 82 79 77 77 76 79 74 68
11 8 13 18 19 19 19 22 19 23 32 28 32 36 36 39 41 46 49 55 60 63 67 69 70 73 74 73 75 76 74 72 71 72 73 73 73 72 73 72 70 66 65 63 63 63 61
10 6 9 16 15 13 16 15 18 20 20 26 29 30 30 32 34 38 43 49 52 60 67 69 69 70 70 70 70 71 71 70 69 67 65 63 63 63 63 61 58 56 54 53 51 49 46
360 4 5 11 15 14 14 12 13 16 16 17 28 29 28 28 31 36 39 44 49 54 56 62 68 71 72 73 73 73 74 75 75 72 71 69 67 66 63 62 59 54 50 45 39 37 31
342 351 353 9 10 5 11 10 14 12 11 15 17 27 28 25 30 32 37 39 40 46 52 55 54 54 55 57 60 63 63 63 63 63 61 59 59 57 55 52 50 45 40 34 28 23 15
335 338 345 355 1 8 2 5 4 9 10 10 12 14 23 27 26 26 31 37 38 38 43 46 49 52 54 52 50 49 49 49 48 44 42 40 39 39 39 35 31 26 19 13 7 359 350
325 332 335 337 341 347 358 359 352 1 4 11 9 12 15 20 24 26 27 28 32 37 38 37 43 52 52 52 52 48 45 47 49 50 47 45 43 40 35 29 28 23 23 15 7 359 346
312 320 327 333 335 336 336 344 352 348 354 3 15 12 11 13 20 18 18 17 23 24 33 35 39 39 38 40 39 40 40 43 44 47 41 40 38 39 37 32 28 21 14 11 3 354 353
300 315 320 322 328 331 333 334 339 341 347 353 357 9 11 12 11 9 13 17 18 21 18 22 28 30 31 33 39 36 36 35 36 39 32 29 28 17 16 7 6 2 359 354 355 350 347
Height
10583 10559 10528 10494 10462 10435 10414 10395 10375 10361 10355 10349 10347 10349 10353 10359 10367 10377 10389 10406 10427 10442 10460 10475 10489 10504 10523 10537 10556 10572 10586 10597 10608 10615 10624 10632 10639 10645 10653 10660 10667 10672 10677 10682 10686 10692 10696
10572 10546 10514 10476 10440 10417 10395 10373 10356 10343 10333 10328 10326 10328 10332 10339 10348 10357 10369 10386 10403 10422 10440 10456 10472 10489 10503 10518 10536 10555 10575 10583 10594 10604 10612 10620 10627 10633 10640 10645 10652 10656 10661 10665 10670 10677 10682
10562 10534 10504 10462 10433 10407 10381 10358 10341 10329 10320 10314 10312 10312 10316 10323 10331 10341 10353 10369 10382 10396 10422 10439 10457 10475 10488 10503 10518 10539 10555 10567 10579 10589 10599 10607 10614 10621 10627 10633 10639 10643 10647 10649 10655 10660 10665
10553 10528 10498 10458 10423 10397 10371 10348 10330 10319 10311 10305 10302 10302 10304 10309 10317 10328 10342 10355 10363 10379 10403 10418 10440 10458 10476 10483 10500 10516 10536 10550 10562 10575 10586 10595 10602 10609 10615 10622 10625 10628 10632 10635 10640 10645 10648
10549 10525 10495 10457 10419 10391 10368 10347 10329 10314 10306 10300 10296 10297 10297 10301 10308 10316 10328 10341 10354 10369 10388 10403 10422 10445 10457 10468 10485 10504 10521 10535 10550 10562 10572 10581 10590 10597 10603 10608 10613 10616 10620 10621 10627 10632 10632
10549 10521 10493 10459 10425 10395 10370 10351 10331 10316 10306 10297 10292 10291 10293 10295 10299 10306 10316 10328 10340 10361 10374 10390 10403 10425 10437 10456 10481 10494 10506 10520 10535 10549 10561 10570 10579 10586 10591 10595 10601 10603 10608 10610 10615 10618 10613
10550 10520 10494 10465 10432 10402 10377 10355 10334 10320 10310 10301 10296 10292 10290 10292 10296 10301 10309 10320 10335 10355 10368 10381 10396 10418 10432 10451 10472 10482 10497 10510 10524 10538 10548 10557 10566 10573 10578 10582 10588 10592 10595 10599 10602 10603 10598
10554 10524 10498 10473 10440 10410 10386 10365 10344 10328 10315 10305 10299 10296 10295 10296 10298 10303 10310 10318 10331 10346 10358 10372 10389 10411 10427 10445 10461 10476 10491 10504 10515 10525 10534 10543 10552 10560 10567 10571 10577 10581 10584 10586 10586 10587 10588
10560 10533 10505 10480 10452 10420 10398 10375 10357 10342 10330 10321 10310 10302 10301 10302 10303 10307 10314 10322 10332 10345 10359 10375 10390 10406 10421 10438 10456 10469 10481 10493 10503 10512 10521 10530 10540 10548 10555 10560 10564 10568 10570 10570 10572 10573 10575
10570 10542 10516 10494 10467 10433 10410 10387 10372 10357 10345 10333 10321 10313 10310 10310 10311 10314 10320 10329 10337 10347 10361 10375 10388 10401 10418 10434 10451 10464 10476 10486 10497 10505 10514 10522 10530 10537 10543 10547 10552 10553 10555 10558 10559 10559 10561
10579 10555 10528 10504 10481 10453 10429 10406 10387 10374 10358 10347 10334 10327 10323 10323 10323 10325 10331 10337 10347 10357 10372 10382 10395 10408 10423 10435 10448 10460 10470 10481 10491 10499 10507 10513 10519 10525 10530 10535 10537 10540 10543 10545 10547 10550 10547
10591 10567 10541 10518 10496 10473 10451 10428 10408 10390 10377 10363 10352 10343 10339 10341 10338 10339 10344 10350 10360 10370 10382 10392 10402 10413 10425 10436 10446 10457 10468 10477 10484 10492 10500 10506 10512 10518 10522 10526 10529 10531 10534 10535 10536 10538 10536
10603 10582 10558 10532 10512 10493 10472 10453 10432 10413 10397 10387 10372 10364 10360 10358 10355 10355 10357 10363 10370 10378 10388 10396 10406 10416 10427 10437 10446 10456 10466 10474 10481 10489 10495 10501 10507 10511 10516 10519 10521 10523 10522 10523 10522 10520 10520
10612 10596 10574 10553 10528 10512 10494 10474 10461 10442 10421 10408 10398 10385 10379 10374 10374 10374 10375 10379 10383 10389 10396 10404 10412 10421 10430 10439 10449 10458 10464 10472 10479 10484 10492 10496 10500 10504 10507 10510 10510 10511 10511 10510 10511 10510 10508
10623 10607 10591 10571 10552 10531 10512 10496 10481 10469 10450 10432 10422 10411 10406 10397 10393 10393 10394 10393 10398 10402 10405 10410 10417 10424 10432 10440 10448 10454 10460 10468 10475 10480 10485 10489 10493 10495 10497 10498 10500 10500 10502 10504 10502 10503 10502
10632 10618 10605 10588 10572 10555 10537 10518 10505 10491 10479 10459 10451 10441 10431 10420 10414 10408 10400 10409 10412 10414 10419 10423 10427 10432 10437 10443 10449 10456 10463 10468 10473 10477 10480 10484 10486 10488 10490 10492 10495 10497 10498 10500 10501 10502 10501
10642 10629 10616 10605 10590 10576 10561 10544 10525 10514 10503 10484 10472 10475 10459 10443 10430 10420 10429 10428 10427 10427 10429 10433 10436 10440 10444 10449 10454 10459 10463 10467 10471 10475 10479 10482 10485 10488 10491 10494 10496 10498 10500 10500 10501 10501 10500
10651 10640 10628 10616 10604 10591 10577 10565 10551 10535 10524 10513 10502 10505 10483 10462 10445 10454 10455 10449 10448 10446 10445 10446 10449 10452 10455 10458 10462 10466 10470 10474 10477 10480 10483 10487 10490 10493 10496 10497 10498 10500 10501 10501 10502 10502 10502
10659 10650 10638 10627 10616 10604 10592 10583 10572 10561 10545 10534 10528 10524 10505 10481 10492 10483 10480 10473 10472 10468 10465 10464 10464 10464 10466 10469 10472 10475 10480 10483 10487 10490 10492 10494 10496 10498 10500 10502 10503 10504 10504 10504 10505 10504 10504
10663 10657 10647 10637 10627 10617 10607 10597 10588 10580 10570 10560 10547 10538 10525 10517 10518 10514 10507 10501 10495 10489 10486 10484 10483 10484 10486 10487 10489 10492 10494 10496 10498 10499 10500 10501 10502 10505 10507 10508 10509 10510 10509 10510 10509 10508 10507
10669 10661 10655 10647 10638 10628 10619 10610 10603 10595 10586 10580 10567 10559 10550 10543 10538 10532 10526 10523 10518 10513 10510 10506 10507 10506 10506 10506 10507 10509 10510 10510 10511 10512 10513 10514 10514 10515 10517 10518 10518 10518 10517 10516 10514 10513 10512
10672 10666 10659 10652 10646 10638 10630 10623 10614 10606 10600 10594 10585 10579 10570 10564 10558 10554 10547 10542 10536 10532 10529 10528 10527 10526 10525 10524 10523 10522 10523 10524 10524 10525 10526 10526 10526 10526 10526 10526 10526 10525 10523 10522 10521 10519 10518
10675 10670 10664 10658 10651 10645 10639 10631 10624 10616 10611 10607 10600 10595 10589 10583 10576 10569 10563 10558 10553 10549 10545 10542 10540 10538 10537 10536 10535 10534 10533 10533 10534 10535 10534 10534 10535 10534 10534 10533 10532 10532 10531 10529 10527 10525 10523
10677 10673 10669 10663 10657 10651 10646 10641 10634 10628 10621 10617 10612 10607 10602 10597 10592 10586 10578 10571 10567 10562 10560 10556 10552 10550 10550 10548 10546 10545 10545 10543 10542 10542 10542 10542 10541 10540 10539 10537 10536 10535 10533 10531 10529 10527 10525
10676 10674 10670 10666 10661 10656 10651 10647 10641 10635 10630 10626 10622 10618 10612 10607 10604 10599 10592 10585 10580 10575 10570 10567 10565 10562 10560 10558 10556 10554 10554 10552 10551 10550 10548 10547 10545 10544 10542 10541 10539 10537 10535 10533 10530 10528 10525
10674 10671 10669 10667 10663 10659 10655 10650 10647 10642 10636 10630 10627 10622 10619 10615 10613 10608 10603 10597 10591 10585 10580 10576 10573 10570 10568 10567 10565 10563 10560 10558 10556 10555 10553 10551 10550 10547 10545 10543 10541 10539 10537 10534 10531 10528 10525
10670 10668 10667 10666 10664 10660 10656 10654 10649 10645 10642 10637 10632 10627 10622 10620 10617 10614 10612 10608 10603 10598 10592 10587 10582 10579 10576 10573 10570 10567 10565 10562 10560 10558 10556 10554 10552 10550 10548 10545 10544 10542 10539 10535 10532 10529 10525
10663 10663 10662 10660 10659 10659 10657 10654 10651 10648 10645 10641 10636 10632 10629 10623 10620 10617 10615 10612 10610 10606 10601 10596 10592 10587 10584 10579 10576 10572 10569 10566 10564 10562 10560 10557 10555 10553 10550 10548 10544 10541 10537 10534 10530 10525 10521
10657 10657 10657 10655 10655 10653 10652 10652 10649 10647 10646 10643 10640 10636 10631 10628 10624 10620 10619 10616 10615 10612 10607 10601 10596 10592 10589 10585 10581 10577 10573 10569 10565 10562 10560 10558 10556 10553 10550 10546 10542 10538 10534 10529 10525 10520 10515